Find OneWeb SL0054

NORAD ID: 45158 Int'l Des: 2020-008 Owner: ONEWEB Country: UK Constellation: oneweb operational
LEOCIRCULARPOLARONEWEB_TYPE

リアルタイム位置

3D地球を読み込み中...

OneWeb SL0054について

説明を読み込み中...

次回通過

Passes for default location (London). Set your location on the main map for personalized predictions.

高度履歴

Loading altitude history...

軌道要素

1 45158U 20008AD 26106.76763610 .00000148 00000-0 38770-3 0 9995
2 45158 87.8836 48.4840 0001890 81.7914 278.3428 13.10369460299985
Epoch: Apr 16, 2026 • Age: 8 hours

現在のステータス

高度 1232.7 km
速度 7.25 km/s
衛星直下点 71.01°N, 177.61°E
打ち上げ日 Feb 6, 2020
運用期間 6.1 years
タイプ internet

技術仕様

分類 Payload
質量 148.00 kg
乾燥質量 140.00 kg
総質量 148.00 kg
長さ 1.30 m
直径 1.00 m
スパン 5.00 m
形状 Trapezoid+2 pan
製造者 ONEWUS
バスタイプ ARROW
フェーズステータス In Orbit
所有者/国 ONEWEB/UK

Most Searched